| time (UTC) | temp F | wind direction | speed MPH | gust MPH | rain 1hr in | rain 24hr in | rain mn in | humidity % | barometer mb |
| 20260506033216 | 50 | 246 | 5.0 | 8.0 | 0.00 | 0.14 | 0.00 | 99 | 1007.2 |
| 20260506032715 | 50 | 248 | 6.0 | 8.0 | 0.00 | 0.14 | 0.00 | 99 | 1007.3 |
| 20260506032234 | 50 | 245 | 5.0 | 7.0 | 0.00 | 0.14 | 0.00 | 99 | 1007.4 |
| 20260506031735 | 50 | 253 | 5.0 | 7.0 | 0.00 | 0.14 | 0.00 | 99 | 1007.3 |
| 20260506031232 | 51 | 243 | 4.0 | 6.0 | 0.00 | 0.14 | 0.00 | 99 | 1007.5 |
| 20260506030732 | 51 | 241 | 3.0 | 4.0 | 0.00 | 0.14 | 0.00 | 99 | 1007.4 |
| 20260506030229 | 51 | 243 | 4.0 | 6.0 | 0.00 | 0.14 | 0.00 | 99 | 1007.4 |
| 20260506025728 | 51 | 250 | 5.0 | 6.0 | 0.00 | 0.14 | 0.00 | 99 | 1007.6 |
| 20260506025226 | 51 | 247 | 5.0 | 6.0 | 0.00 | 0.14 | 0.00 | 99 | 1007.6 |
| 20260506024725 | 51 | 257 | 5.0 | 6.0 | 0.00 | 0.14 | 0.00 | 99 | 1007.5 |
| 20260506024226 | 51 | 249 | 6.0 | 9.0 | 0.00 | 0.14 | 0.00 | 99 | 1007.5 |
| 20260506023726 | 51 | 243 | 5.0 | 7.0 | 0.00 | 0.14 | 0.00 | 99 | 1007.6 |
| 20260506023221 | 51 | 249 | 6.0 | 8.0 | 0.00 | 0.14 | 0.00 | 99 | 1007.4 |
| 20260506022720 | 51 | 248 | 6.0 | 8.0 | 0.00 | 0.14 | 0.00 | 99 | 1007.5 |
| 20260506022219 | 51 | 252 | 5.0 | 7.0 | 0.00 | 0.14 | 0.00 | 99 | 1007.6 |
| 20260506021718 | 51 | 248 | 4.0 | 7.0 | 0.00 | 0.14 | 0.00 | 99 | 1007.5 |
| 20260506021217 | 51 | 248 | 4.0 | 6.0 | 0.00 | 0.14 | 0.00 | 99 | 1007.5 |
| 20260506020735 | 51 | 246 | 7.0 | 9.0 | 0.00 | 0.14 | 0.00 | 99 | 1007.5 |
| 20260506020242 | 51 | 245 | 6.0 | 9.0 | 0.00 | 0.14 | 0.00 | 99 | 1007.5 |
| 20260506015733 | 51 | 246 | 5.0 | 8.0 | 0.00 | 0.14 | 0.00 | 99 | 1007.5 |
| 20260506015231 | 51 | 244 | 4.0 | 6.0 | 0.00 | 0.14 | 0.00 | 99 | 1007.5 |
| 20260506014730 | 51 | 237 | 4.0 | 6.0 | 0.00 | 0.14 | 0.00 | 99 | 1007.6 |
| 20260506014228 | 51 | 236 | 3.0 | 4.0 | 0.00 | 0.14 | 0.00 | 99 | 1007.6 |
| 20260506013728 | 51 | 238 | 4.0 | 6.0 | 0.00 | 0.14 | 0.00 | 99 | 1007.8 |
| 20260506013232 | 51 | 241 | 3.0 | 4.0 | 0.00 | 0.14 | 0.00 | 99 | 1007.6 |
| 20260506012726 | 51 | 236 | 4.0 | 6.0 | 0.00 | 0.14 | 0.00 | 99 | 1007.7 |
| 20260506012224 | 51 | 239 | 5.0 | 7.0 | 0.00 | 0.14 | 0.00 | 99 | 1007.7 |
| 20260506011723 | 51 | 239 | 6.0 | 8.0 | 0.00 | 0.14 | 0.00 | 99 | 1007.8 |
| 20260506011221 | 51 | 240 | 4.0 | 6.0 | 0.00 | 0.14 | 0.00 | 99 | 1007.8 |
| 20260506010720 | 51 | 245 | 4.0 | 6.0 | 0.00 | 0.14 | 0.00 | 99 | 1007.9 |
| 20260506010223 | 51 | 244 | 5.0 | 6.0 | 0.00 | 0.14 | 0.00 | 99 | 1007.9 |
| 20260506005717 | 51 | 242 | 5.0 | 6.0 | 0.00 | 0.14 | 0.00 | 99 | 1007.9 |
| 20260506005216 | 51 | 246 | 5.0 | 7.0 | 0.00 | 0.14 | 0.00 | 99 | 1007.9 |
| 20260506004735 | 51 | 243 | 5.0 | 7.0 | 0.00 | 0.14 | 0.00 | 99 | 1007.9 |
| 20260506004234 | 51 | 240 | 7.0 | 11.0 | 0.00 | 0.14 | 0.00 | 99 | 1007.8 |
| 20260506003733 | 51 | 240 | 7.0 | 11.0 | 0.00 | 0.14 | 0.00 | 99 | 1007.9 |
| 20260506003231 | 52 | 244 | 6.0 | 9.0 | 0.00 | 0.14 | 0.00 | 99 | 1008.0 |
| 20260506002736 | 52 | 247 | 7.0 | 10.0 | 0.00 | 0.14 | 0.00 | 99 | 1008.0 |
| 20260506002229 | 52 | 244 | 7.0 | 13.0 | 0.00 | 0.14 | 0.00 | 99 | 1008.0 |
| 20260506001727 | 52 | 247 | 7.0 | 10.0 | 0.00 | 0.14 | 0.00 | 99 | 1008.1 |
| 20260506001226 | 52 | 243 | 6.0 | 8.0 | 0.00 | 0.14 | 0.00 | 99 | 1008.1 |
| 20260506000725 | 52 | 245 | 6.0 | 8.0 | 0.00 | 0.14 | 0.00 | 99 | 1008.1 |
| 20260506000228 | 52 | 249 | 7.0 | 9.0 | 0.00 | 0.14 | 0.00 | 99 | 1008.1 |
| 20260505235728 | 52 | 251 | 8.0 | 9.0 | 0.00 | 0.14 | 0.00 | 99 | 1008.2 |
| 20260505235221 | 52 | 246 | 7.0 | 10.0 | 0.00 | 0.14 | 0.00 | 99 | 1008.2 |
| 20260505234720 | 52 | 237 | 6.0 | 8.0 | 0.00 | 0.14 | 0.00 | 99 | 1008.3 |
| 20260505234225 | 52 | 245 | 7.0 | 9.0 | 0.00 | 0.14 | 0.00 | 99 | 1008.3 |
| 20260505233718 | 52 | 247 | 7.0 | 11.0 | 0.00 | 0.14 | 0.00 | 99 | 1008.3 |
| 20260505233217 | 52 | 241 | 7.0 | 9.0 | 0.00 | 0.14 | 0.00 | 99 | 1008.4 |
| 20260505232735 | 52 | 247 | 6.0 | 9.0 | 0.00 | 0.14 | 0.00 | 99 | 1008.2 |
| 20260505232234 | 52 | 249 | 6.0 | 8.0 | 0.00 | 0.14 | 0.00 | 99 | 1008.3 |
| 20260505231733 | 52 | 248 | 5.0 | 8.0 | 0.00 | 0.14 | 0.00 | 99 | 1008.4 |
| 20260505231238 | 52 | 244 | 5.0 | 7.0 | 0.00 | 0.14 | 0.00 | 99 | 1008.4 |
| 20260505230730 | 52 | 244 | 5.0 | 7.0 | 0.00 | 0.14 | 0.00 | 99 | 1008.5 |
| 20260505230229 | 52 | 241 | 5.0 | 7.0 | 0.00 | 0.14 | 0.00 | 99 | 1008.3 |
| 20260505225728 | 52 | 247 | 4.0 | 6.0 | 0.00 | 0.14 | 0.00 | 99 | 1008.4 |
| 20260505225227 | 52 | 241 | 4.0 | 6.0 | 0.00 | 0.14 | 0.00 | 99 | 1008.4 |
| 20260505224727 | 52 | 234 | 4.0 | 6.0 | 0.00 | 0.14 | 0.00 | 99 | 1008.4 |
| 20260505224224 | 51 | 234 | 3.0 | 4.0 | 0.01 | 0.14 | 0.00 | 99 | 1008.4 |
| 20260505223727 | 51 | 231 | 3.0 | 4.0 | 0.01 | 0.14 | 0.00 | 99 | 1008.4 |
| 20260505223222 | 51 | 230 | 3.0 | 4.0 | 0.01 | 0.14 | 0.00 | 99 | 1008.4 |
| 20260505222720 | 51 | 236 | 3.0 | 4.0 | 0.01 | 0.14 | 0.00 | 99 | 1008.4 |
| 20260505222219 | 51 | 234 | 3.0 | 4.0 | 0.02 | 0.14 | 0.00 | 99 | 1008.5 |
| 20260505221718 | 51 | 232 | 3.0 | 3.0 | 0.02 | 0.14 | 0.00 | 99 | 1008.3 |
| 20260505221217 | 51 | 234 | 3.0 | 6.0 | 0.03 | 0.14 | 0.00 | 99 | 1008.4 |
| 20260505220724 | 51 | 241 | 4.0 | 6.0 | 0.04 | 0.14 | 0.00 | 99 | 1008.4 |
| 20260505220235 | 52 | 239 | 3.0 | 4.0 | 0.05 | 0.14 | 0.14 | 99 | 1008.4 |
| 20260505215736 | 52 | 232 | 3.0 | 6.0 | 0.06 | 0.14 | 0.14 | 99 | 1008.4 |
| 20260505215232 | 52 | 231 | 4.0 | 4.0 | 0.07 | 0.14 | 0.14 | 99 | 1008.4 |
| 20260505214731 | 52 | 238 | 3.0 | 4.0 | 0.07 | 0.14 | 0.14 | 99 | 1008.5 |
| 20260505214230 | 52 | 229 | 3.0 | 4.0 | 0.06 | 0.13 | 0.13 | 99 | 1008.5 |
| 20260505213729 | 52 | 239 | 4.0 | 6.0 | 0.06 | 0.13 | 0.13 | 99 | 1008.5 |
| 20260505213227 | 52 | 236 | 4.0 | 6.0 | 0.07 | 0.13 | 0.13 | 99 | 1008.6 |
| 20260505212732 | 52 | 239 | 4.0 | 6.0 | 0.12 | 0.13 | 0.13 | 99 | 1008.6 |
| 20260505212224 | 52 | 242 | 4.0 | 6.0 | 0.12 | 0.12 | 0.12 | 99 | 1008.6 |
| 20260505211725 | 52 | 241 | 4.0 | 6.0 | 0.12 | 0.12 | 0.12 | 99 | 1008.6 |
| 20260505211222 | 53 | 239 | 4.0 | 7.0 | 0.11 | 0.11 | 0.11 | 99 | 1008.6 |
| 20260505210721 | 53 | 231 | 4.0 | 8.0 | 0.10 | 0.10 | 0.10 | 99 | 1008.6 |
| 20260505210219 | 53 | 232 | 4.0 | 7.0 | 0.09 | 0.09 | 0.09 | 99 | 1008.6 |
| 20260505205720 | 53 | 231 | 3.0 | 4.0 | 0.08 | 0.08 | 0.08 | 99 | 1008.6 |
| 20260505205219 | 53 | 213 | 2.0 | 4.0 | 0.07 | 0.07 | 0.07 | 98 | 1008.4 |
| 20260505204716 | 53 | 0.0 | 0.0 | 0.07 | 0.07 | 0.07 | 98 | 1008.5 | |
| 20260505204236 | 53 | 161 | 1.0 | 2.0 | 0.07 | 0.07 | 0.07 | 98 | 1008.4 |
| 20260505203733 | 53 | 151 | 1.0 | 4.0 | 0.07 | 0.07 | 0.07 | 97 | 1008.6 |
| 20260505203232 | 54 | 188 | 0.0 | 1.0 | 0.06 | 0.06 | 0.06 | 97 | 1008.5 |
| 20260505202733 | 54 | 188 | 0.0 | 1.0 | 0.01 | 0.01 | 0.01 | 96 | 1008.5 |
| 20260505202229 | 54 | 188 | 0.0 | 2.0 | 0.00 | 0.00 | 0.00 | 96 | 1008.5 |
| 20260505201728 | 54 | 180 | 1.0 | 3.0 | 0.00 | 0.00 | 0.00 | 96 | 1008.5 |
| 20260505201227 | 54 | 166 | 0.0 | 2.0 | 0.00 | 0.00 | 0.00 | 96 | 1008.4 |
| 20260505200726 | 54 | 166 | 0.0 | 1.0 | 0.00 | 0.00 | 0.00 | 96 | 1008.4 |
| 20260505200224 | 54 | 166 | 0.0 | 2.0 | 0.00 | 0.00 | 0.00 | 96 | 1008.4 |
| 20260505195727 | 54 | 165 | 1.0 | 2.0 | 0.00 | 0.00 | 0.00 | 96 | 1008.4 |
| 20260505195221 | 54 | 0.0 | 0.0 | 0.00 | 0.00 | 0.00 | 96 | 1008.4 | |
| 20260505194720 | 54 | 132 | 0.0 | 1.0 | 0.00 | 0.00 | 0.00 | 96 | 1008.5 |
| 20260505194219 | 53 | 132 | 0.0 | 2.0 | 0.00 | 0.00 | 0.00 | 96 | 1008.3 |
| 20260505193718 | 53 | 132 | 1.0 | 3.0 | 0.00 | 0.00 | 0.00 | 96 | 1008.3 |
| 20260505193223 | 53 | 192 | 0.0 | 1.0 | 0.00 | 0.00 | 0.00 | 96 | 1008.3 |
| 20260505192717 | 53 | 0.0 | 0.0 | 0.00 | 0.00 | 0.00 | 96 | 1008.3 | |
| 20260505192235 | 53 | 0.0 | 0.0 | 0.00 | 0.00 | 0.00 | 96 | 1008.3 | |
| 20260505191733 | 53 | 0.0 | 0.0 | 0.00 | 0.00 | 0.00 | 96 | 1008.3 | |
| 20260505191239 | 54 | 0.0 | 0.0 | 0.00 | 0.00 | 0.00 | 96 | 1008.2 | |
| 20260505190730 | 54 | 0.0 | 0.0 | 0.00 | 0.00 | 0.00 | 96 | 1008.2 | |
| 20260505190229 | 54 | 0.0 | 0.0 | 0.00 | 0.00 | 0.00 | 96 | 1008.2 | |
| 20260505185728 | 54 | 0.0 | 0.0 | 0.00 | 0.00 | 0.00 | 95 | 1008.2 | |
| 20260505185227 | 54 | 0.0 | 0.0 | 0.00 | 0.00 | 0.00 | 95 | 1008.1 | |
| 20260505184731 | 54 | 0.0 | 0.0 | 0.00 | 0.00 | 0.00 | 95 | 1008.1 | |
| 20260505184224 | 54 | 0.0 | 0.0 | 0.00 | 0.00 | 0.00 | 94 | 1008.1 | |
| 20260505183722 | 54 | 192 | 0.0 | 1.0 | 0.00 | 0.00 | 0.00 | 94 | 1008.2 |
| 20260505183221 | 54 | 0.0 | 0.0 | 0.00 | 0.00 | 0.00 | 94 | 1008.1 | |
| 20260505182720 | 54 | 0.0 | 0.0 | 0.00 | 0.00 | 0.00 | 94 | 1008.1 | |
| 20260505182219 | 54 | 0.0 | 0.0 | 0.00 | 0.00 | 0.00 | 94 | 1008.0 | |
| 20260505181717 | 55 | 0.0 | 0.0 | 0.00 | 0.00 | 0.00 | 94 | 1008.0 | |
| 20260505181216 | 55 | 0.0 | 0.0 | 0.00 | 0.00 | 0.00 | 94 | 1008.1 | |
| 20260505180737 | 55 | 0.0 | 0.0 | 0.00 | 0.00 | 0.00 | 93 | 1008.0 | |
| 20260505180236 | 55 | 0.0 | 0.0 | 0.00 | 0.00 | 0.00 | 93 | 1008.1 | |
| 20260505175733 | 55 | 0.0 | 0.0 | 0.00 | 0.00 | 0.00 | 92 | 1008.1 | |
| 20260505175231 | 55 | 0.0 | 0.0 | 0.00 | 0.00 | 0.00 | 93 | 1008.2 | |
| 20260505174732 | 55 | 192 | 0.0 | 1.0 | 0.00 | 0.00 | 0.00 | 93 | 1008.2 |
| 20260505174233 | 55 | 192 | 1.0 | 2.0 | 0.00 | 0.00 | 0.00 | 93 | 1008.2 |
| 20260505173727 | 55 | 0.0 | 0.0 | 0.00 | 0.00 | 0.00 | 93 | 1008.3 | |
| 20260505173227 | 55 | 0.0 | 0.0 | 0.00 | 0.00 | 0.00 | 92 | 1008.3 | |
| 20260505172725 | 56 | 0.0 | 0.0 | 0.00 | 0.00 | 0.00 | 91 | 1008.2 | |
| 20260505172224 | 56 | 0.0 | 0.0 | 0.00 | 0.00 | 0.00 | 92 | 1008.2 | |
| 20260505171723 | 55 | 0.0 | 0.0 | 0.00 | 0.00 | 0.00 | 93 | 1008.3 | |
| 20260505171224 | 55 | 0.0 | 0.0 | 0.00 | 0.00 | 0.00 | 93 | 1008.3 | |
| 20260505170726 | 55 | 0.0 | 0.0 | 0.00 | 0.00 | 0.00 | 93 | 1008.2 | |
| 20260505170219 | 55 | 0.0 | 0.0 | 0.00 | 0.00 | 0.00 | 94 | 1008.1 | |
| 20260505165718 | 55 | 0.0 | 0.0 | 0.00 | 0.00 | 0.00 | 94 | 1008.3 | |
| 20260505165218 | 54 | 0.0 | 0.0 | 0.00 | 0.00 | 0.00 | 94 | 1008.4 | |
| 20260505164735 | 54 | 218 | 0.0 | 2.0 | 0.00 | 0.00 | 0.00 | 95 | 1008.4 |
| 20260505164234 | 55 | 222 | 2.0 | 2.0 | 0.00 | 0.00 | 0.00 | 95 | 1008.6 |
| 20260505163735 | 55 | 212 | 2.0 | 2.0 | 0.00 | 0.00 | 0.00 | 94 | 1008.6 |
| 20260505163235 | 55 | 211 | 1.0 | 2.0 | 0.00 | 0.00 | 0.00 | 93 | 1008.6 |
| 20260505162730 | 55 | 0.0 | 0.0 | 0.00 | 0.00 | 0.00 | 93 | 1008.5 | |
| 20260505162229 | 56 | 0.0 | 0.0 | 0.00 | 0.00 | 0.00 | 92 | 1008.5 | |
| 20260505161728 | 56 | 0.0 | 0.0 | 0.00 | 0.00 | 0.00 | 92 | 1008.4 | |
| 20260505161227 | 55 | 222 | 0.0 | 1.0 | 0.00 | 0.00 | 0.00 | 92 | 1008.4 |
| 20260505160726 | 55 | 0.0 | 0.0 | 0.00 | 0.00 | 0.00 | 92 | 1008.5 | |
| 20260505160230 | 55 | 222 | 0.0 | 1.0 | 0.00 | 0.00 | 0.00 | 92 | 1008.4 |
| 20260505153219 | 54 | 222 | 0.0 | 1.0 | 0.00 | 0.00 | 0.00 | 93 | 1008.7 |
| 20260505152716 | 55 | 223 | 1.0 | 2.0 | 0.00 | 0.00 | 0.00 | 93 | 1008.8 |
| 20260505152235 | 55 | 227 | 2.0 | 2.0 | 0.00 | 0.00 | 0.00 | 93 | 1008.9 |
| 20260505151733 | 55 | 236 | 3.0 | 3.0 | 0.00 | 0.00 | 0.00 | 93 | 1008.8 |
| 20260505151232 | 55 | 235 | 3.0 | 4.0 | 0.00 | 0.00 | 0.00 | 92 | 1008.8 |
| 20260505150733 | 55 | 233 | 4.0 | 6.0 | 0.00 | 0.00 | 0.00 | 91 | 1008.9 |
| 20260505150232 | 55 | 244 | 4.0 | 6.0 | 0.00 | 0.00 | 0.00 | 89 | 1008.9 |
| 20260505140235 | 58 | 247 | 5.0 | 7.0 | 0.00 | 0.00 | 0.00 | 82 | 1009.1 |
| 20260505130220 | 60 | 249 | 5.0 | 7.0 | 0.00 | 0.00 | 0.00 | 69 | 1009.1 |
| 20260505124716 | 61 | 212 | 3.0 | 6.0 | 0.00 | 0.00 | 0.00 | 71 | 1009.1 |
| 20260505124235 | 61 | 208 | 3.0 | 6.0 | 0.00 | 0.00 | 0.00 | 71 | 1009.0 |
| 20260505123734 | 61 | 207 | 2.0 | 4.0 | 0.00 | 0.00 | 0.00 | 71 | 1009.0 |
| 20260505123232 | 61 | 219 | 4.0 | 7.0 | 0.00 | 0.00 | 0.00 | 71 | 1009.0 |
| 20260505122731 | 61 | 218 | 4.0 | 7.0 | 0.00 | 0.00 | 0.00 | 71 | 1009.0 |
| 20260505122232 | 61 | 212 | 3.0 | 4.0 | 0.00 | 0.00 | 0.00 | 71 | 1009.1 |
| 20260505121731 | 61 | 216 | 4.0 | 6.0 | 0.00 | 0.00 | 0.00 | 71 | 1009.0 |
| 20260505121227 | 61 | 213 | 4.0 | 6.0 | 0.00 | 0.00 | 0.00 | 70 | 1009.0 |
| 20260505120730 | 61 | 212 | 3.0 | 6.0 | 0.00 | 0.00 | 0.00 | 70 | 1009.0 |
| 20260505120224 | 61 | 211 | 3.0 | 4.0 | 0.00 | 0.00 | 0.00 | 71 | 1009.1 |
| 20260505115724 | 61 | 208 | 3.0 | 4.0 | 0.00 | 0.00 | 0.00 | 71 | 1009.1 |
| 20260505115223 | 61 | 203 | 2.0 | 3.0 | 0.00 | 0.00 | 0.00 | 71 | 1009.1 |
| 20260505114721 | 61 | 203 | 2.0 | 3.0 | 0.00 | 0.00 | 0.00 | 71 | 1009.2 |
| 20260505114224 | 61 | 212 | 3.0 | 4.0 | 0.00 | 0.00 | 0.00 | 70 | 1009.3 |
| 20260505113718 | 61 | 209 | 3.0 | 4.0 | 0.00 | 0.00 | 0.00 | 71 | 1009.2 |
| 20260505113217 | 61 | 204 | 2.0 | 4.0 | 0.00 | 0.00 | 0.00 | 71 | 1009.3 |
| 20260505112716 | 61 | 197 | 2.0 | 4.0 | 0.00 | 0.00 | 0.00 | 70 | 1009.3 |
| 20260505112239 | 61 | 211 | 3.0 | 4.0 | 0.00 | 0.00 | 0.00 | 70 | 1009.4 |
| 20260505111733 | 61 | 203 | 2.0 | 3.0 | 0.00 | 0.00 | 0.00 | 70 | 1009.3 |
| 20260505111232 | 61 | 210 | 3.0 | 4.0 | 0.00 | 0.00 | 0.00 | 71 | 1009.4 |
| 20260505110731 | 61 | 207 | 3.0 | 4.0 | 0.00 | 0.00 | 0.00 | 70 | 1009.4 |
| 20260505110230 | 61 | 204 | 1.0 | 2.0 | 0.00 | 0.00 | 0.00 | 71 | 1009.5 |
| 20260505102219 | 60 | 204 | 2.0 | 4.0 | 0.00 | 0.00 | 0.00 | 72 | 1009.8 |
| 20260505101720 | 61 | 204 | 2.0 | 4.0 | 0.00 | 0.00 | 0.00 | 71 | 1009.9 |
| 20260505101217 | 62 | 203 | 1.0 | 3.0 | 0.00 | 0.00 | 0.00 | 70 | 1009.9 |
| 20260505100715 | 61 | 200 | 1.0 | 3.0 | 0.00 | 0.00 | 0.00 | 71 | 1009.9 |
| 20260505100234 | 61 | 202 | 1.0 | 3.0 | 0.00 | 0.00 | 0.00 | 70 | 1009.9 |
| 20260505095733 | 61 | 206 | 2.0 | 3.0 | 0.00 | 0.00 | 0.00 | 71 | 1009.9 |
| 20260505095232 | 61 | 208 | 3.0 | 4.0 | 0.00 | 0.00 | 0.00 | 71 | 1009.9 |
| 20260505094733 | 61 | 202 | 1.0 | 3.0 | 0.00 | 0.00 | 0.00 | 70 | 1009.9 |
| 20260505094231 | 60 | 202 | 1.0 | 3.0 | 0.00 | 0.00 | 0.00 | 70 | 1009.9 |
| 20260505093728 | 60 | 202 | 2.0 | 3.0 | 0.00 | 0.00 | 0.00 | 71 | 1009.9 |
| 20260505093227 | 59 | 204 | 1.0 | 2.0 | 0.00 | 0.00 | 0.00 | 74 | 1009.9 |
| 20260505092726 | 60 | 206 | 2.0 | 4.0 | 0.00 | 0.00 | 0.00 | 75 | 1010.0 |
| 20260505092234 | 59 | 203 | 2.0 | 3.0 | 0.00 | 0.00 | 0.00 | 76 | 1010.1 |
| 20260505091723 | 59 | 207 | 3.0 | 4.0 | 0.00 | 0.00 | 0.00 | 76 | 1010.2 |
| 20260505091222 | 58 | 206 | 3.0 | 4.0 | 0.00 | 0.00 | 0.00 | 77 | 1010.2 |
| 20260505090720 | 58 | 209 | 3.0 | 4.0 | 0.00 | 0.00 | 0.00 | 79 | 1010.2 |
| 20260505090219 | 58 | 207 | 3.0 | 6.0 | 0.00 | 0.00 | 0.00 | 80 | 1010.3 |
| 20260505085726 | 58 | 208 | 2.0 | 3.0 | 0.00 | 0.00 | 0.00 | 80 | 1010.3 |
| 20260505085216 | 58 | 213 | 3.0 | 4.0 | 0.00 | 0.00 | 0.00 | 80 | 1010.3 |
| 20260505084715 | 58 | 208 | 3.0 | 6.0 | 0.00 | 0.00 | 0.00 | 81 | 1010.3 |
| 20260505084236 | 58 | 203 | 2.0 | 4.0 | 0.00 | 0.00 | 0.00 | 81 | 1010.2 |
| 20260505083733 | 58 | 201 | 2.0 | 3.0 | 0.00 | 0.00 | 0.00 | 80 | 1010.4 |
| 20260505083232 | 58 | 204 | 2.0 | 3.0 | 0.00 | 0.00 | 0.00 | 80 | 1010.4 |
| 20260505082731 | 58 | 197 | 1.0 | 3.0 | 0.00 | 0.00 | 0.00 | 79 | 1010.3 |
| 20260505082229 | 58 | 202 | 2.0 | 4.0 | 0.00 | 0.00 | 0.00 | 78 | 1010.3 |
| 20260505081730 | 58 | 204 | 2.0 | 4.0 | 0.00 | 0.00 | 0.00 | 79 | 1010.3 |
| 20260505081229 | 58 | 200 | 2.0 | 3.0 | 0.00 | 0.00 | 0.00 | 79 | 1010.3 |
| 20260505080726 | 58 | 203 | 2.0 | 3.0 | 0.00 | 0.00 | 0.00 | 79 | 1010.4 |
| 20260505080225 | 57 | 199 | 2.0 | 3.0 | 0.00 | 0.00 | 0.00 | 79 | 1010.3 |
| 20260505075723 | 58 | 183 | 1.0 | 3.0 | 0.00 | 0.00 | 0.00 | 79 | 1010.4 |
| 20260505075222 | 58 | 163 | 0.0 | 1.0 | 0.00 | 0.00 | 0.00 | 79 | 1010.4 |
| 20260505074721 | 57 | 162 | 0.0 | 1.0 | 0.00 | 0.00 | 0.00 | 80 | 1010.4 |
| 20260505074220 | 56 | 162 | 0.0 | 2.0 | 0.00 | 0.00 | 0.00 | 81 | 1010.5 |
| 20260505073721 | 56 | 162 | 1.0 | 2.0 | 0.00 | 0.00 | 0.00 | 82 | 1010.4 |
| 20260505073218 | 56 | 163 | 0.0 | 2.0 | 0.00 | 0.00 | 0.00 | 82 | 1010.5 |
| 20260505072721 | 56 | 0.0 | 0.0 | 0.00 | 0.00 | 0.00 | 81 | 1010.5 | |
| 20260505072235 | 56 | 0.0 | 0.0 | 0.00 | 0.00 | 0.00 | 82 | 1010.6 | |
| 20260505071734 | 56 | 0.0 | 0.0 | 0.00 | 0.00 | 0.00 | 82 | 1010.6 | |
| 20260505071240 | 56 | 0.0 | 0.0 | 0.00 | 0.00 | 0.00 | 82 | 1010.7 | |
| 20260505070731 | 56 | 0.0 | 0.0 | 0.00 | 0.00 | 0.00 | 82 | 1010.7 | |
| 20260505070230 | 55 | 0.0 | 0.0 | 0.00 | 0.00 | 0.00 | 83 | 1010.7 | |
| 20260505065729 | 56 | 0.0 | 0.0 | 0.00 | 0.00 | 0.00 | 83 | 1010.8 | |
| 20260505065232 | 56 | 0.0 | 0.0 | 0.00 | 0.00 | 0.00 | 83 | 1010.9 | |
| 20260505064726 | 56 | 0.0 | 0.0 | 0.00 | 0.00 | 0.00 | 84 | 1010.9 | |
| 20260505064225 | 56 | 0.0 | 0.0 | 0.00 | 0.00 | 0.00 | 84 | 1011.0 | |
| 20260505063724 | 56 | 0.0 | 0.0 | 0.00 | 0.00 | 0.00 | 83 | 1010.9 | |
| 20260505063223 | 56 | 0.0 | 0.0 | 0.00 | 0.00 | 0.00 | 83 | 1010.9 | |
| 20260505062722 | 55 | 0.0 | 0.0 | 0.00 | 0.00 | 0.00 | 84 | 1011.0 | |
| 20260505062225 | 56 | 0.0 | 0.0 | 0.00 | 0.00 | 0.00 | 84 | 1011.0 | |
| 20260505061723 | 56 | 0.0 | 0.0 | 0.00 | 0.00 | 0.00 | 85 | 1011.0 | |
| 20260505061218 | 55 | 162 | 0.0 | 2.0 | 0.00 | 0.00 | 0.00 | 84 | 1011.1 |
| 20260505060716 | 55 | 0.0 | 0.0 | 0.00 | 0.00 | 0.00 | 84 | 1011.0 | |
| 20260505060241 | 55 | 0.0 | 0.0 | 0.00 | 0.00 | 0.00 | 84 | 1011.0 | |
| 20260505055734 | 55 | 0.0 | 0.0 | 0.00 | 0.00 | 0.00 | 84 | 1010.9 | |
| 20260505055233 | 55 | 0.0 | 0.0 | 0.00 | 0.00 | 0.00 | 84 | 1010.9 | |
| 20260505054731 | 55 | 0.0 | 0.0 | 0.00 | 0.00 | 0.00 | 84 | 1010.9 | |
| 20260505054230 | 55 | 0.0 | 0.0 | 0.00 | 0.00 | 0.00 | 83 | 1010.8 | |
| 20260505053729 | 55 | 0.0 | 0.0 | 0.00 | 0.00 | 0.00 | 83 | 1010.8 | |
| 20260505053228 | 55 | 0.0 | 0.0 | 0.00 | 0.00 | 0.00 | 83 | 1010.8 | |
| 20260505052729 | 55 | 0.0 | 0.0 | 0.00 | 0.00 | 0.00 | 84 | 1010.7 | |
| 20260505052229 | 54 | 0.0 | 0.0 | 0.00 | 0.00 | 0.00 | 84 | 1010.7 | |
| 20260505051724 | 54 | 0.0 | 0.0 | 0.00 | 0.00 | 0.00 | 85 | 1010.8 | |
| 20260505051222 | 54 | 0.0 | 0.0 | 0.00 | 0.00 | 0.00 | 85 | 1010.8 | |
| 20260505050725 | 54 | 0.0 | 0.0 | 0.00 | 0.00 | 0.00 | 85 | 1010.9 | |
| 20260505050220 | 54 | 0.0 | 0.0 | 0.00 | 0.00 | 0.00 | 85 | 1010.9 | |
| 20260505041733 | 54 | 161 | 1.0 | 1.0 | 0.00 | 0.00 | 0.00 | 85 | 1010.8 |
| 20260505041228 | 53 | 161 | 1.0 | 2.0 | 0.00 | 0.00 | 0.00 | 85 | 1010.8 |
| 20260505040726 | 53 | 162 | 1.0 | 2.0 | 0.00 | 0.00 | 0.00 | 86 | 1010.8 |
| 20260505040227 | 52 | 0.0 | 0.0 | 0.00 | 0.00 | 0.00 | 87 | 1010.8 | |
| 20260505035725 | 52 | 0.0 | 0.0 | 0.00 | 0.00 | 0.00 | 87 | 1010.8 | |
| 20260505035223 | 53 | 0.0 | 0.0 | 0.00 | 0.00 | 0.00 | 87 | 1010.9 | |
| 20260505034722 | 53 | 0.0 | 0.0 | 0.00 | 0.00 | 0.00 | 86 | 1010.9 | |
| 20260505034220 | 53 | 0.0 | 0.0 | 0.00 | 0.00 | 0.00 | 86 | 1011.0 | |
| 20260505033719 | 53 | 0.0 | 0.0 | 0.00 | 0.00 | 0.00 | 85 | 1010.9 |